This demonstration page uses our WeatherBlox Daily Observations layout. Learn more.

Left ArrowRight Arrow

38.89511, -77.03637

Hourly Observations for January 22, 2019

Temp ( °F °C ) Dew Point ( °F °C ) Humidity (%) Winds ( mph kmh ) Pressure ( in mb ) Visibility ( mi km ) Precip ( " mm )
12:52 am 00:52 Clear 17 -8.3 1 -17.2 49 49 NNW 13 20 30.61 1037 10 16 0.00 0.00
1:52 am 01:52 Clear 17 -8.3 1 -17.2 49 49 WNW 7 11 30.65 1038 10 16 0.00 0.00
2:52 am 02:52 Clear 17 -8.3 1 -17.2 49 49 NW 8 13 30.66 1038 10 16 0.00 0.00
3:52 am 03:52 Clear 16 -8.9 2 -16.7 54 54 N 14 22 30.66 1038 10 16 0.00 0.00
4:52 am 04:52 Clear 16 -8.9 1 -17.2 51 51 WNW 8 13 30.69 1039 10 16 0.00 0.00
5:52 am 05:52 Clear 16 -8.9 2 -16.7 54 54 NNW 8 13 30.69 1039 10 16 0.00 0.00
6:52 am 06:52 Clear 16 -8.9 3 -16.1 56 56 N 10 17 30.70 1040 10 16 0.00 0.00
7:52 am 07:52 Sunny 17 -8.3 3 -16.1 54 54 N 12 19 30.73 1041 10 16 0.00 0.00
8:52 am 08:52 Mostly Sunny 20 -6.7 3 -16.1 48 48 NNW 8 13 30.75 1041 10 16 0.00 0.00
9:52 am 09:52 Mostly Sunny 23 -5 2 -16.7 40 40 N 6 9 30.75 1041 10 16 0.00 0.00
10:52 am 10:52 Mostly Sunny 25 -3.9 2 -16.7 37 37 VRB 3 6 30.76 1042 10 16 0.00 0.00
11:52 am 11:52 Mostly Sunny 27 -2.8 3 -16.1 35 35 E 5 7 30.72 1040 10 16 0.00 0.00
12:52 pm 12:52 Partly Cloudy 29 -1.7 3 -16.1 33 33 SSE 7 11 30.71 1040 10 16 0.00 0.00
1:52 pm 13:52 Mostly Cloudy 31 -0.6 5 -15 33 33 S 7 11 30.67 1039 10 16 0.00 0.00
2:52 pm 14:52 Mostly Cloudy 32 0 4 -15.6 30 30 S 7 11 30.64 1038 10 16 0.00 0.00
3:52 pm 15:52 Mostly Cloudy 32 0 5 -15 32 32 S 6 9 30.63 1037 10 16 0.00 0.00
4:52 pm 16:52 Mostly Cloudy 32 0 6 -14.4 33 33 S 8 13 30.62 1037 10 16 0.00 0.00
5:52 pm 17:52 Mostly Cloudy 31 -0.6 8 -13.3 38 38 SSW 7 11 30.62 1037 10 16 0.00 0.00
6:52 pm 18:52 Cloudy 32 0 7 -13.9 35 35 S 8 13 30.62 1037 10 16 0.00 0.00
7:52 pm 19:52 Cloudy 31 -0.6 7 -13.9 36 36 SSE 10 17 30.61 1037 10 16 0.00 0.00
8:52 pm 20:52 Cloudy 31 -0.6 11 -11.7 43 43 S 10 17 30.59 1036 10 16 0.00 0.00
9:52 pm 21:52 Mostly Cloudy 31 -0.6 14 -10 49 49 S 13 20 30.58 1035 10 16 0.00 0.00
10:52 pm 22:52 Mostly Cloudy 31 -0.6 15 -9.4 52 52 S 13 20 30.56 1035 10 16 0.00 0.00
11:52 pm 23:52 Mostly Cloudy 32 0 16 -8.9 52 52 S 12 19 30.53 1034 10 16 0.00 0.00

Powered by AerisWeather